Location: *
(49.5667°N, 1.3667°W)
Time: 09:39:51
(UTC+00:00)

Cosmos 2327 Rocket - Pass Details

Date: 20 September 2019
Orbit: 943 x 1009 km, 83.0° (Epoch: 19 October)

Event Time Altitude Azimuth Distance (km) Brightness Sun altitude
Rises 18:32:46 0° 351° (N) 3,699 7.7 -4.7°
Reaches altitude 10° 18:35:20 10° 355° (N) 2,737 7.0 -5.1°
Maximum altitude 18:41:35 68° 78° (ENE) 1,035 4.5 -6.1°
Drops below altitude 10° 18:47:41 10° 161° (SSE) 2,676 6.5 -7.1°
Sets 18:50:10 0° 164° (SSE) 3,610 7.2 -7.5°
